Location: Newark
(44.9333°N, 0.5667°E)
Time: 12:48:27
(UTC+00:00)

UWE-3 - Visible Passes

Search period start: 18 February 2020 00:00
Search period end: 28 February 2020 00:00
Orbit: 585 x 683 km, 97.6° (Epoch: 17 February)

Date Brightness Start Highest point End Pass type
(mag) Time Alt. Az. Time Alt. Az. Time Alt. Az.
18 Feb ? 04:09:41 10° ENE 04:11:41 13° E 04:13:41 10° ESE visible
18 Feb ? 05:43:59 10° N 05:48:36 75° WNW 05:53:15 10° SSW visible
19 Feb ? 04:30:04 10° NE 04:33:32 21° E 04:37:01 10° SE visible
19 Feb ? 06:05:44 10° N 06:10:09 46° WNW 06:14:35 10° SW visible
20 Feb ? 04:51:07 10° NNE 04:55:18 33° E 04:59:31 10° SSE visible
21 Feb ? 05:12:27 10° NNE 05:17:01 54° E 05:21:35 10° S visible
22 Feb ? 05:33:59 10° NNE 05:38:39 89° E 05:43:21 10° SSW visible
23 Feb ? 04:20:28 10° NE 04:23:29 17° E 04:26:30 10° SE visible
23 Feb ? 05:55:40 10° N 06:00:14 56° WNW 06:04:48 10° SSW visible
24 Feb ? 04:41:19 10° NE 04:45:18 27° E 04:49:15 10° SSE visible
25 Feb ? 05:02:34 10° NNE 05:07:02 44° E 05:11:29 10° S visible
26 Feb ? 05:24:01 10° NNE 05:28:42 73° ESE 05:33:21 10° S visible
27 Feb ? 04:11:02 10° ENE 04:13:25 14° E 04:15:46 10° ESE visible
27 Feb ? 05:45:38 10° N 05:50:18 70° WNW 05:54:56 10° SSW visible
